Weather History for Oxnard, CA

Change the Weather History Date:

Thursday, January 24, 2013

  Actual Average Record
Temperature  
Mean Temperature 58 °F -  
Max Temperature 63 °F 66 °F 84 °F (1951)
Min Temperature 53 °F 46 °F 33 °F (1949)
Degree Days  
Heating Degree Days 7    
Growing Degree Days 8 (Base 50)    
Moisture  
Dew Point 54 °F    
Average Humidity 88    
Maximum Humidity 100    
Minimum Humidity 72    
Precipitation  
Precipitation 0.54 in - - ()
Sea Level Pressure  
Sea Level Pressure 30.12 in    
Wind  
Wind Speed 9 mph (East)    
Max Wind Speed 14 mph    
Max Gust Speed -    
Visibility 6 miles    
Events Rain    
Averages and records for this station are not official NWS values.
T = Trace of Precipitation, MM = Missing Value Source: NWS Daily Summary

Daily Weather History Graph

Daily Weather History Graph

Search for Another Location

Airport:

Trip Planner

Search our weather history database for the weather conditions in past years. The results will help you decide how hot, cold, wet, or windy it might be!

Date:

Astronomy

Jan. 24, 2013 Rise Set
Actual Time 6:58 AM PST 5:19 PM PST
Civil Twilight 6:32 AM PST 5:46 PM PST
Nautical Twilight 6:01 AM PST 6:16 PM PST
Astronomical Twilight 5:32 AM PST 6:46 PM PST
Moon 3:27 PM PST (1/24) 4:58 AM PST (1/24)
Length of Visible Light 11h 13m
Length of Day
10h 20m
Waxing Gibbous, 95% of the Moon is Illuminated
Jan 24
Waxing Gibbous
Jan 26
Full
Feb 3
Last Quarter
Feb 9
New
Feb 17
First Quarter

Hourly Weather History & Observations

Time (PST) Temp. Dew Point Humidity Pressure Visibility Wind Dir Wind Speed Gust Speed Precip Events Conditions
12:07 AM 55.4 °F 48.2 °F 77% 30.09 in 10.0 mi ENE 12.7 mph - 0.00 in Rain Light Rain
12:51 AM 53.1 °F 48.9 °F 86% 30.11 in 4.0 mi ENE 13.8 mph - 0.04 in Rain Light Rain
1:51 AM 53.1 °F 50.0 °F 89% 30.10 in 4.0 mi ENE 13.8 mph - 0.14 in Rain Light Rain
2:51 AM 53.1 °F 50.0 °F 89% 30.10 in 8.0 mi ENE 12.7 mph - 0.05 in Rain Light Rain
4:01 AM 53.6 °F 51.8 °F 94% 30.08 in 5.0 mi ENE 10.4 mph - 0.01 in Rain Light Rain
4:13 AM 53.6 °F 51.8 °F 94% 30.08 in 6.0 mi ENE 9.2 mph - 0.03 in Rain Light Rain
4:51 AM 54.0 °F 52.0 °F 93% 30.09 in 4.0 mi ENE 8.1 mph - 0.07 in Rain Light Rain
5:51 AM 54.0 °F 52.0 °F 93% 30.09 in 4.0 mi ENE 5.8 mph - 0.05 in Rain Light Rain
6:51 AM 54.0 °F 53.1 °F 97% 30.11 in 5.0 mi ENE 8.1 mph - 0.11 in Rain Light Rain
7:51 AM 55.0 °F 53.1 °F 93% 30.12 in 7.0 mi ENE 4.6 mph - 0.02 in Rain Light Rain
8:37 AM 55.4 °F 53.6 °F 94% 30.13 in 2.0 mi ENE 6.9 mph - 0.02 in Rain Light Rain
8:48 AM 55.4 °F 55.4 °F 100% 30.14 in 4.0 mi ENE 9.2 mph - 0.02 in Rain Light Rain
8:51 AM 57.0 °F 55.0 °F 93% 30.14 in 4.0 mi ENE 9.2 mph - 0.02 in   Overcast
9:33 AM 57.2 °F 55.4 °F 94% 30.15 in 1.8 mi ENE 9.2 mph - 0.01 in Rain Light Rain
9:39 AM 57.2 °F 55.4 °F 94% 30.16 in 3.0 mi ENE 10.4 mph - 0.02 in Rain Light Rain
9:51 AM 57.0 °F 55.9 °F 96% 30.17 in 4.0 mi ENE 8.1 mph - 0.02 in Rain Light Rain
10:51 AM 57.9 °F 55.9 °F 93% 30.17 in 6.0 mi ENE 10.4 mph - 0.02 in Rain Light Rain
11:51 AM 60.1 °F 55.9 °F 86% 30.16 in 6.0 mi ENE 8.1 mph - 0.00 in Rain Light Rain
12:44 PM 59.0 °F 57.2 °F 94% 30.14 in 3.0 mi SE 3.5 mph - 0.00 in   Overcast
12:51 PM 59.0 °F 57.0 °F 93% 30.14 in 3.0 mi SSE 3.5 mph - 0.00 in   Overcast
1:51 PM 61.0 °F 54.0 °F 78% 30.13 in 3.0 mi East 10.4 mph - N/A   Haze
2:51 PM 62.1 °F 54.0 °F 75% 30.12 in 10.0 mi East 5.8 mph - N/A   Overcast
3:51 PM 63.0 °F 54.0 °F 72% 30.11 in 10.0 mi East 5.8 mph - N/A   Overcast
4:51 PM 63.0 °F 54.0 °F 72% 30.13 in 10.0 mi SE 4.6 mph - N/A   Overcast
5:51 PM 62.1 °F 54.0 °F 75% 30.12 in 10.0 mi ESE 3.5 mph - N/A   Overcast
6:51 PM 61.0 °F 53.1 °F 75% 30.13 in 10.0 mi South 3.5 mph - N/A   Scattered Clouds
7:51 PM 57.9 °F 53.1 °F 84% 30.12 in 10.0 mi Calm Calm - N/A   Clear
8:51 PM 57.9 °F 54.0 °F 87% 30.13 in 8.0 mi Calm Calm - N/A   Mostly Cloudy
9:51 PM 57.0 °F 54.0 °F 89% 30.14 in 9.0 mi NE 3.5 mph - 0.00 in   Mostly Cloudy
11:51 PM 57.9 °F 54.0 °F 87% 30.13 in 10.0 mi East 4.6 mph - 0.00 in   Overcast